STARLINK-5281, 54190

Orbit data source: Space-Track

STARLINK-5281, 54190 is a payload satellite owned by SpaceX/Seattle (US) in LEO that was launched on Fri, 28 Oct 2022 UTC via an FALCON 9 launch vehicle from the Air Force Western Test Range (AFWTR). Payload-class satellites include a variety of spacecraft equipped with specific instruments for various scientific and technological missions. These include communications satellites like Starlink; space stations such as the ISS; scientific satellites like the Hubble; Earth observation satellites from companies like Planet Labs, Umbra, and HawkEye 360; GPS; miniature CubeSats for education and research; and military/defense satellites.

Loading next visibility...
Identifier
54190, 2022-141AK
Orbit
LEO
Last TLE update
15 hours ago
Origin
Manufacturer
SpaceX/Seattle
Mission
Operational Commercial Communications
Bus & Motor
STARLINK, Unknown motor
Mass
305 kg wet, ~290 kg dry
Launch date (UTC)
2022-10-28 (3 years ago)
Launch vehicle
FALCON 9
Launch site
Air Force Western Test Range (AFWTR)
Object type
Payload
Rocket body
Debris
Shape & HBR
Box + 1 Pan, 8.86 m
Radar Cross Section
13.562 m², Large (>1 m²)

Expand to show TLE details & history

TLE from 15 hours ago
0 STARLINK-5281
1 54190U 22141AK  25178.91352654  .00000897  00000-0  74415-4 0  9996
2 54190  53.2175  57.9733 0001369  87.6465 272.4683 15.08837599147530
Epoch: 2025-06-27T21:55Z
TLE epoch observation values (Epoch: 2025-06-27T21:55:28.693Z)
Latitude
-0.00007°
Longitude
172.84412°
Altitude
540.608 km
Speed
7.593 km/s
True Right ascension
03h 51m 53s
True Declination
0° 00' 00"
Sunlit
Object was in daylight at epoch
Visualization orbit readout
Latitude
15.0752°
Longitude
-21.51853°
Altitude
539.634 km
Speed
7.595 km/s
Apparent Right ascension
13h 51m 04s
Apparent Declination
-11° 44' 57"
Sunlit
Object is in full shadow
Visualization observer readout
Local Sidereal Time
00:23:37
Azimuth
319.502° NNW
Elevation
-55.851°
Doppler factor
1
Orbital elements
Apogee altitude
540.943 km
Perigee altitude
539.049 km
Semi-major axis
6,918.133 km
Eccentricity
0.00014
Inclination
53.2175°
RAAN
57.9733°
Arg. of periapsis
87.6465°
True anomaly
Unknown
Mean anomaly
272.4683°
Eccentric anomaly
Unknown
Mean motion
3.7719 °/min
Orbital period
95.44 mins
BSTAR
0.000074415
Loading maneuver chart data...
Loading SW <> Apogee altitude chart data...
Loading historical data...
Loading historical data...
Loading historical data...
Loading historical data...
Loading historical data...
Loading historical data...
Loading historical data...

STARLINK-5281 Visibility forecast

Observer location: undefined°, undefined°

Span
Click to sort rows by Start time (UTC) header in descending order
Start Az.
Max El. time (UTC)
Max El. Az.
Max El.
End time (UTC)
End Az.
6 mins2025-06-28 18:47:35.441Z236.111° WSW2025-06-28 18:49:35.441Z274.762° WNW43.966°2025-06-28 18:53:35.441Z47.705° ENE
4 mins2025-06-28 20:28:35.441Z317.743° NNW2025-06-28 20:29:35.441Z337.223° NNW18.309°2025-06-28 20:32:35.441Z26.031° NE
4 mins2025-06-28 23:49:35.441Z354.922° N2025-06-28 23:50:35.441Z14.71° NNE19.705°2025-06-28 23:53:35.441Z68.487° E
6 mins2025-06-29 01:28:35.441Z308.136° NW2025-06-29 01:30:35.441Z273.105° WNW44.754°2025-06-29 01:34:35.441Z133.19° SE
|